This demonstration page uses our WeatherBlox Daily Observations layout. Learn more.

Hourly Observations for October 1, 2018

Temp ( °F °C ) Dew Point ( °F °C ) Humidity (%) Winds ( mph kmh ) Pressure ( in mb ) Visibility ( mi km ) Precip ( " mm )
12:15 am 00:15 Cloudy with Mist and Fog 46 7.8 46 7.8 100 100 NE 8 13 30.15 1021 4 6.437376 0 0
12:35 am 00:35 Cloudy with Mist and Fog 46 7.7 46 7.7 100 100 NE 8 13 30.15 1021 4 6.437376 0 0
12:55 am 00:55 Cloudy with Mist and Fog 46 7.7 46 7.7 100 100 ENE 6 9 30.15 1021 3 4.828032 0 0
1:15 am 01:15 Cloudy with Mist and Fog 46 7.8 46 7.8 100 100 NE 6 9 30.15 1021 3 4.828032 0 0
1:35 am 01:35 Cloudy with Mist and Fog 46 7.8 46 7.8 100 100 ENE 7 11 30.15 1021 4 6.437376 0 0
1:55 am 01:55 Cloudy with Mist and Fog 46 7.7 46 7.7 100 100 ENE 7 11 30.15 1021 5 8.04672 0 0
2:15 am 02:15 Cloudy with Mist and Fog 46 7.8 46 7.8 100 100 ENE 7 11 30.15 1021 5 8.04672 0 0
2:35 am 02:35 Cloudy with Mist and Fog 46 7.7 46 7.7 100 100 NE 8 13 30.15 1021 3 4.828032 0 0
2:55 am 02:55 Cloudy with Mist and Fog 46 7.7 46 7.7 100 100 ENE 7 11 30.15 1021 2.5 4.02336 0 0
3:15 am 03:15 Cloudy with Mist and Fog 46 7.7 46 7.7 100 100 ENE 7 11 30.15 1021 3 4.828032 0 0
3:35 am 03:35 Cloudy with Mist and Fog 46 7.6 46 7.6 100 100 NE 6 9 30.12 1020 4 6.437376 0 0
3:55 am 03:55 Cloudy with Mist and Fog 46 7.7 46 7.7 100 100 ENE 7 11 30.12 1020 4 6.437376 0 0
4:15 am 04:15 Cloudy with Mist and Fog 46 7.7 46 7.7 100 100 ENE 6 9 30.12 1020 4 6.437376 0 0
4:35 am 04:35 Cloudy with Mist and Fog 46 7.7 46 7.7 100 100 NE 7 11 30.12 1020 2.5 4.02336 0 0
4:55 am 04:55 Cloudy with Mist and Fog 46 7.8 46 7.8 100 100 NE 6 9 30.12 1020 2.5 4.02336 0 0
5:15 am 05:15 Cloudy with Mist and Fog 46 7.8 46 7.8 100 100 NE 5 7 30.12 1020 2.5 4.02336 0 0
5:35 am 05:35 Cloudy with Mist and Fog 46 7.7 46 7.7 100 100 E 5 7 30.12 1020 2 3.218688 0 0
5:55 am 05:55 Cloudy with Mist and Fog 46 7.9 46 7.9 100 100 E 7 11 30.12 1020 3 4.828032 0 0
6:15 am 06:15 Cloudy 46 7.9 46 7.9 100 100 NE 3 6 30.12 1020 7 11.265408 0 0
6:35 am 06:35 Cloudy 46 8 46 8 100 100 NNW 6 9 30.15 1021 7 11.265408 0 0
6:55 am 06:55 Cloudy with Light Drizzle 46 8 46 8 100 100 NNW 3 6 30.15 1021 3 4.828032 0 0
7:15 am 07:15 Cloudy with Light Drizzle 46 8 46 8 100 100 N 5 7 30.15 1021 3 4.828032 0 0
7:35 am 07:35 Cloudy with Mist and Fog 46 8 46 8 100 100 N 7 11 30.15 1021 4 6.437376 0 0
7:55 am 07:55 Cloudy with Mist and Fog 46 8 46 8 100 100 N 6 9 30.15 1021 4 6.437376 0 0
8:15 am 08:15 Cloudy with Mist and Fog 46 8 46 8 100 100 N 6 9 30.15 1021 5 8.04672 0 0
8:35 am 08:35 Cloudy with Mist and Fog 46 8 46 8 100 100 N 8 13 30.15 1021 5 8.04672 0 0
8:55 am 08:55 Cloudy 47 8.1 47 8.1 100 100 N 9 15 30.15 1021 10 16.09344 0 0
9:15 am 09:15 Cloudy 47 8.4 47 8.4 100 100 N 8 13 30.15 1021 10 16.09344 0 0
9:35 am 09:35 Cloudy 47 8.6 47 8.6 100 100 NE 5 7 30.15 1021 10 16.09344 0 0
9:55 am 09:55 undefined 48 9.1 48 9 99 99 NE 7 11 30.15 1021 N/A 0 0
10:15 am 10:15 Cloudy 49 9.5 48 9.1 97 97 NNE 8 13 30.15 1021 10 16.09344 0 0
10:35 am 10:35 Cloudy 49 9.6 48 8.9 95 95 ENE 6 9 30.15 1021 10 16.09344 0 0
10:55 am 10:55 Cloudy 50 9.9 48 8.8 93 93 NNE 3 6 30.15 1021 10 16.09344 0 0
11:15 am 11:15 Cloudy 51 10.5 48 9.1 91 91 Calm 30.12 1020 10 16.09344 0 0
11:35 am 11:35 Cloudy 51 10.8 48 9 89 89 Calm 30.12 1020 10 16.09344 0 0
11:55 am 11:55 Cloudy 53 11.7 49 9.6 87 87 Calm 30.12 1020 10 16.09344 0 0
12:15 pm 12:15 Cloudy 54 12.2 50 9.9 86 86 Calm 30.12 1020 10 16.09344 0 0
12:35 pm 12:35 Cloudy 55 13 50 10.1 83 83 NW 6 9 30.12 1020 10 16.09344 0 0
12:55 pm 12:55 Cloudy 56 13.2 50 10.2 82 82 W 3 6 30.12 1020 10 16.09344 0 0
1:15 pm 13:15 Cloudy 56 13.6 51 10.5 82 82 N 8 13 30.12 1020 10 16.09344 0 0
1:35 pm 13:35 Cloudy 57 13.7 51 10.3 80 80 N 8 13 30.12 1020 10 16.09344 0 0
1:55 pm 13:55 Cloudy 57 13.7 51 10.3 80 80 NNW 9 15 30.12 1020 10 16.09344 0 0
2:15 pm 14:15 Cloudy 57 13.7 50 10.2 80 80 N 8 13 30.12 1020 10 16.09344 0 0
2:35 pm 14:35 Cloudy 57 14.1 51 10.3 78 78 N 7 11 30.09 1019 10 16.09344 0 0
2:55 pm 14:55 Cloudy 57 14.1 50 10.2 78 78 N 5 7 30.06 1018 10 16.09344 0 0
3:15 pm 15:15 Cloudy 57 14 50 10.1 78 78 N 8 13 30.06 1018 10 16.09344 0 0
3:35 pm 15:35 Cloudy 57 14 50 10.2 78 78 NNE 8 13 30.06 1018 10 16.09344 0 0
3:55 pm 15:55 Cloudy 58 14.6 51 10.5 77 77 NE 8 13 30.06 1018 10 16.09344 0 0
4:15 pm 16:15 Cloudy 58 14.3 51 10.4 78 78 NNE 7 11 30.06 1018 10 16.09344 0 0
4:35 pm 16:35 Cloudy 58 14.3 51 10.5 78 78 N 6 9 30.06 1018 10 16.09344 0 0
4:55 pm 16:55 Cloudy 57 13.9 51 10.4 80 80 NNE 9 15 30.06 1018 10 16.09344 0 0
5:15 pm 17:15 Cloudy 57 13.8 50 10.2 79 79 NNE 9 15 30.06 1018 10 16.09344 0 0
5:35 pm 17:35 Partly Cloudy 56 13.6 50 10.2 80 80 NNE 6 9 30.06 1018 10 16.09344 0 0
5:55 pm 17:55 Partly Cloudy 57 13.7 51 10.4 81 81 NNE 7 11 30.06 1018 10 16.09344 0 0
6:15 pm 18:15 Sunny 56 13.2 50 10.1 82 82 NE 8 13 30.09 1019 10 16.09344 0 0
6:35 pm 18:35 Sunny 55 12.7 50 10.1 84 84 NE 7 11 30.09 1019 10 16.09344 0 0
6:55 pm 18:55 Sunny 54 12.3 50 10 86 86 NE 6 9 30.09 1019 10 16.09344 0 0
7:15 pm 19:15 Sunny 53 11.7 50 9.9 89 89 NE 6 9 30.09 1019 10 16.09344 0 0
7:35 pm 19:35 Clear 52 11.1 50 9.8 92 92 E 6 9 30.09 1019 10 16.09344 0 0
7:55 pm 19:55 Clear 51 10.8 49 9.7 93 93 ENE 5 7 30.09 1019 10 16.09344 0 0
8:15 pm 20:15 Clear 50 10.2 49 9.4 95 95 ENE 3 6 30.15 1021 10 16.09344 0 0
8:35 pm 20:35 Clear 50 9.8 49 9.3 97 97 NE 3 6 30.15 1021 10 16.09344 0 0
8:55 pm 20:55 Clear 49 9.5 48 9.1 97 97 NNE 6 9 30.12 1020 10 16.09344 0 0
9:35 pm 21:35 Clear 49 9.6 49 9.3 98 98 ENE 3 6 30.15 1021 10 16.09344 0 0
9:55 pm 21:55 Clear 49 9.2 48 9 99 99 E 6 9 30.15 1021 10 16.09344 0 0
10:15 pm 22:15 Clear 48 8.9 48 8.7 99 99 E 3 6 30.15 1021 10 16.09344 0 0
10:35 pm 22:35 Partly Cloudy 47 8.4 47 8.3 99 99 ESE 6 9 30.15 1021 10 16.09344 0 0
10:55 pm 22:55 Mostly Cloudy 49 9.2 49 9.2 100 100 E 6 9 30.15 1021 10 16.09344 0 0
11:15 pm 23:15 Cloudy 49 9.6 49 9.5 99 99 E 8 13 30.15 1021 10 16.09344 0 0
11:35 pm 23:35 Cloudy 49 9.7 49 9.6 99 99 E 8 13 30.15 1021 10 16.09344 0 0
11:55 pm 23:55 Cloudy 49 9.7 49 9.6 99 99 ESE 9 15 30.15 1021 10 16.09344 0 0

Powered by AerisWeather